Погода в Заводе

Россия / Новгородская область     58°20′40″N   33°06′45″E
темп.,
°C
ветер,
м/с
пор.,
м/с
влажн.,
%
обл.,
%
осадки,
мм/ч
давл.,
гПа
погр.,
м
9 мая, вс
вс900:00+2сз410965 0.1 1009453
03:00+2сз41084100 0.1 1011995
06:000зсз3109432 0.0 1013351
09:00+6зсз48620 0.0 1014705
12:00+10зсз57395 0.0 10162039
15:00+11сз57325 0.0 10182455
18:00+11сз36415 0.0 10192105
21:00+4зюз116619 0.0 102210
10 мая, пн
пн1000:00+3ююз22685 0.0 102325
03:00+2ю2676100 0.0 102594
06:00+5ю3116980 0.0 1025330
09:00+9ююз51058100 0.0 10251073
12:00+9ююз51263100 0.1 1026744
15:00+15юз585197 0.1 1025965
18:00+15ююз475954 0.0 1025945
21:00+10ю388511 0.0 1026150
11 мая, вт
вт1100:00+8ююз31187100 0.0 1028234
03:00+7ююз2990100 0.0 1028184
06:00+8ю288776 0.0 1029195
09:00+14ююз476016 0.0 1029530
12:00+19ююз464612 0.0 10291279
15:00+20ю454244 0.0 10281566
18:00+20ю355120 0.0 10271204
21:00+13юв397696 0.0 1027153
12 мая, ср
ср1200:00+10юв39815 0.0 1028158
03:00+8юв24815 0.0 102879
06:00+8вюв26795 0.0 1028126
09:00+15вюв34535 0.0 1027499
12:00+19вюв45385 0.0 10261130
15:00+21вюв56330 0.0 10241376
18:00+20вюв48480 0.0 10231264
21:00+15вюв39775 0.0 1024274
13 мая, чт
чт1300:00+12вюв39975 0.0 1024209
03:00+11вюв239710 0.0 102461
06:00+13в2892100 0.0 1023251
09:00+18вюв51172100 0.1 1021817
12:00+19вюв51265100 0.0 10191432
15:00+20вюв6126499 0.5 10171891
18:00+15вюв61482100 1.4 10161040
21:00+14юв5128776 1.6 1016605